Meath Environmental Platform

Observations for Trim Market St

Time AQI Temp °C Hum % Pres Pa CO μg/m³ H₂S μg/m³ NO μg/m³ NO₂ μg/m³ O₃ μg/m³ SO₂ μg/m³ PM1 μg/m³ PM2.5 μg/m³ PM10 μg/m³
Sunday 12 July 2026
19:07 2 26.4 48 57,901 0 0 0 5.99 29.32 0 2.14 4.61 6.01
19:06 2 26.5 48 57,940 0 0 0 7.46 31.52 0 1.43 4.09 4.5
19:04 2 26.5 48 58,292 0 0 0 6.07 29.87 0 0.71 3.58 6.01
19:03 2 26.5 48 58,256 0 0 0 7.87 34.86 0 0.71 3.06 3.37
19:02 2 26.5 48 58,349 0 0 0 6.58 26.22 0 2.14 4.62 6.01
19:01 2 26.5 48 58,390 0 0 0 6.07 27.94 0 0.71 3.58 3.74
19:00 2 26.6 48 58,301 0 0 0 7.44 29.96 0 0.71 3.06 3.74
18:59 2 26.6 48 58,071 0 0 0 7.64 30.01 0 0.71 3.58 4.49
18:58 2 26.6 48 58,163 0 0.28 0 7.35 30.32 0 0.71 3.58 6.01
18:54 2 26.6 48 58,400 0 0 0 6.48 31.44 0 2.14 4.11 6.01
18:51 2 26.7 48 58,079 0 0.14 0 9.64 27.51 0 0.71 3.07 3.73
18:50 2 26.7 48 58,165 0 0.4 0 8.04 29.64 0 1.43 3.59 3.73
18:48 2 26.7 48 57,972 0 1.98 0 8.85 31.05 0 0.71 3.07 4.49
18:47 2 26.7 48 57,980 0 3.31 0 10.66 34.34 0 2.85 5.15 6.01
18:36 2 26.8 47 57,764 0 4.82 0 9.49 33.14 0 0.71 3.62 3.71
18:35 2 26.8 47 58,075 0 5.65 0 10.3 33.48 0 1.43 3.62 4.47
18:34 2 26.8 47 58,307 0 5.33 0 9.81 34.81 0 0.71 3.11 3.42
18:33 2 26.8 47 58,467 0 5.06 0 9.73 33.88 0 0.71 3.63 4.47
18:32 2 26.9 47 58,627 0 5.73 0 9.91 36.01 0 0.71 3.64 3.7
18:31 2 26.9 46 58,787 0 4.93 0 8.62 33.69 0 1.43 4.16 5.23